Simultaneous Nadir Overpasses (SNOs) Predictions

Prediction of SNOs between GOES-15 and NOAA-20 Satellite Orbit:

Table of predicted SNOs for the next 14.0 days since TLE Epoch: 5/22/2021
Index Date Time (GOES-15) GOES-15 Lat,Lon NOAA-20 Lat,Lon Distance(km) Time Diff (sec)
1 05/22/2021 10:08:17 0.07,-128.34 0.55,-130.45 241.58 80
2 05/23/2021 09:46:52 0.07,-128.35 -0.46,-125.92 276.46 80
3 05/24/2021 22:08:49 -0.07,-128.31 -0.71,-131.24 332.88 80
4 05/25/2021 21:52:45 -0.07,-128.33 0.30,-126.71 185.24 80
5 05/27/2021 10:14:33 0.07,-128.42 0.86,-131.98 405.40 80
6 05/28/2021 09:53:09 0.07,-128.43 -0.15,-127.45 111.78 80
7 05/29/2021 22:15:05 -0.07,-128.37 -1.07,-132.75 499.62 80
8 05/30/2021 21:59:01 -0.07,-128.39 -0.06,-128.22 18.26 80
9 06/02/2021 10:02:05 0.07,-128.49 0.16,-128.98 55.17 80
10 06/03/2021 09:40:41 0.08,-128.50 -0.85,-124.45 462.02 80
11 06/04/2021 22:02:37 -0.08,-128.43 -0.36,-129.75 149.87 80
